sat.trackr.live / text

‹ back to catalog

STARLINK-32308

NORAD 61663 · 2024-193C

PAYLOAD ACTIVE UNKNOWN

§ Identity

Operator
Country
US
Launch date
2024-10-26
Launch site
AFETR
Launch vehicle
Mass (kg)
RCS (m²)

Purposes: comms

External: N2YO · Heavens-Above · Gunter

§ Orbital elements

Epoch: 2026-09-21T03:17:47.799456Z

Period
93.85 min
Inclination
53.1606°
Eccentricity
0.0001365
Mean motion
15.34394561 rev/d
Perigee alt
461.8 km
Apogee alt
463.7 km
Semi-major
6,840.9 km
B*
2.2490e-5
RAAN
258.6972°
Arg perigee
84.7039°
Mean anomaly
275.4119°
Rev number
10,651

§ Raw data

STARLINK-323081 61663U 24193C   26264.13735879  .00000383  00000+0  22490-4 0  99982 61663  53.1606 258.6972 0001365  84.7039 275.4119 15.34394561106513

JSON: /api/v1/satellites/61663 · /tle

For live sub-satellite position, see the globe view (requires WebGL).

§ Visibility from observer

Set your observer location to see the next 7 days of passes ≥ 10°. The values pass through the URL so the page stays shareable.

No JS? Fill the form by hand. The geolocation button needs JavaScript.